Istanbul, Turkey

7:35 AM EET on February 11, 2016 (GMT +0200)
Ataturk

Weather History for LTBA - September, 2013

Change the Weather History Date:

Thursday, September 5, 2013

  Actual Average Record
Temperature  
Mean Temperature 70 °F -  
Max Temperature 77 °F 73 °F 89 °F (2000)
Min Temperature 62 °F 60 °F 55 °F (2003)
Cooling Degree Days 4    
Growing Degree Days 20 (Base 50)    
Moisture  
Dew Point 48 °F    
Average Humidity 45    
Maximum Humidity 64    
Minimum Humidity 25    
Precipitation  
Precipitation 0.00 in - - ()
Sea Level Pressure  
Sea Level Pressure 30.08 in    
Wind  
Wind Speed 5 mph ()    
Max Wind Speed 10 mph    
Max Gust Speed -    
Visibility 6.2 miles    
Events      
Averages and records for this station are not official NWS values.
T = Trace of Precipitation, MM = Missing Value Source: Averaged Metar Reports

Daily Weather History Graph

Daily Weather History Graph

Search for Another Location

Airport or City:

Trip Planner

Search our weather history database for the weather conditions in past years. The results will help you decide how hot, cold, wet, or windy it might be!

Date:

Astronomy

Sep. 05, 2013 Rise Set
Actual Time 6:35 AM EEST 7:30 PM EEST
Civil Twilight 6:07 AM EEST 7:58 PM EEST
Nautical Twilight 5:33 AM EEST 8:31 PM EEST
Astronomical Twilight 4:59 AM EEST 9:06 PM EEST
Moon 6:27 AM EEST (9/5) 7:11 PM EEST (9/5)
Length of Visible Light 13h 51m
Length of Day
12h 55m
Waning Crescent, 0% of the Moon is Illuminated
Sep 5
Waning Crescent
Sep 5
New
Sep 12
First Quarter
Sep 19
Full
Sep 27
Last Quarter

Hourly Weather History & Observations

Time (EEST) Temp. Dew Point Humidity Pressure Visibility Wind Dir Wind Speed Gust Speed Precip Events Conditions
12:20 AM 68.0 °F 44.6 °F 43% 30.12 in - Variable 1.2 mph - N/A   Clear
12:50 AM 66.2 °F 46.4 °F 49% 30.12 in - Variable 1.2 mph - N/A   Clear
1:20 AM 66.2 °F 48.2 °F 52% 30.12 in - NW 3.5 mph - N/A   Clear
1:50 AM 68.0 °F 46.4 °F 46% 30.12 in - NW 4.6 mph - N/A   Clear
2:20 AM 64.4 °F 48.2 °F 56% 30.09 in - NW 3.5 mph - N/A   Clear
2:50 AM 64.4 °F 48.2 °F 56% 30.09 in - NW 4.6 mph - N/A   Clear
3:20 AM 62.6 °F 46.4 °F 55% 30.12 in - NNW 3.5 mph - N/A   Clear
3:50 AM 64.4 °F 46.4 °F 52% 30.12 in - North 3.5 mph - N/A   Clear
4:20 AM 62.6 °F 46.4 °F 55% 30.12 in - NNW 6.9 mph - N/A   Clear
4:50 AM 64.4 °F 46.4 °F 52% 30.12 in - North 10.4 mph - N/A   Clear
5:20 AM 64.4 °F 48.2 °F 56% 30.12 in - ENE 6.9 mph - N/A   Clear
5:50 AM 64.4 °F 50.0 °F 59% 30.12 in - NE 6.9 mph - N/A   Clear
6:20 AM 64.4 °F 50.0 °F 59% 30.12 in - North 5.8 mph - N/A   Clear
6:50 AM 64.4 °F 50.0 °F 59% 30.12 in - Variable 4.6 mph - N/A   Clear
7:20 AM 64.4 °F 51.8 °F 64% 30.12 in - NNW 5.8 mph - N/A   Clear
7:50 AM 66.2 °F 51.8 °F 60% 30.12 in - Variable 4.6 mph - N/A   Clear
8:20 AM 69.8 °F 51.8 °F 53% 30.09 in 6.2 mi Variable 2.3 mph - N/A   Partly Cloudy
8:50 AM 73.4 °F 50.0 °F 44% 30.12 in 6.2 mi Variable 3.5 mph - N/A   Partly Cloudy
9:20 AM 71.6 °F 50.0 °F 46% 30.12 in 6.2 mi NE 5.8 mph - N/A   Scattered Clouds
9:50 AM 73.4 °F 48.2 °F 41% 30.12 in 6.2 mi NNE 9.2 mph - N/A   Scattered Clouds
10:20 AM 75.2 °F 48.2 °F 38% 30.12 in 6.2 mi NNE 8.1 mph - N/A   Scattered Clouds
10:50 AM 75.2 °F 48.2 °F 38% 30.12 in 6.2 mi NE 6.9 mph - N/A   Scattered Clouds
11:20 AM 75.2 °F 53.6 °F 47% 30.12 in 6.2 mi Variable 4.6 mph - N/A   Scattered Clouds
11:50 AM 71.6 °F 53.6 °F 53% 30.09 in 6.2 mi South 6.9 mph - N/A   Scattered Clouds
12:20 PM 75.2 °F 51.8 °F 44% 30.09 in 6.2 mi South 8.1 mph - N/A   Scattered Clouds
12:50 PM 73.4 °F 51.8 °F 47% 30.09 in 6.2 mi SSE 9.2 mph - N/A   Scattered Clouds
1:20 PM 71.6 °F 53.6 °F 53% 30.09 in 6.2 mi South 9.2 mph - N/A   Scattered Clouds
1:50 PM 73.4 °F 51.8 °F 47% 30.09 in 6.2 mi South 6.9 mph - N/A   Scattered Clouds
2:20 PM 73.4 °F 51.8 °F 47% 30.06 in 6.2 mi SSW 6.9 mph - N/A   Scattered Clouds
3:00 PM 73 °F 52 °F 36% 30.08 in 6 mi SSW 6.9 mph - -   Partly Cloudy
3:50 PM 73.4 °F 51.8 °F 47% 30.06 in 6.2 mi SW 8.1 mph - N/A   Scattered Clouds
4:20 PM 75.2 °F 51.8 °F 44% 30.04 in 6.2 mi South 6.9 mph - N/A   Scattered Clouds
4:50 PM 77.0 °F 46.4 °F 34% 30.04 in 6.2 mi South 3.5 mph - N/A   Partly Cloudy
5:20 PM 75.2 °F 44.6 °F 34% 30.04 in 6.2 mi ENE 10.4 mph - N/A   Partly Cloudy
5:50 PM 75.2 °F 42.8 °F 31% 30.04 in 6.2 mi East 9.2 mph - N/A   Scattered Clouds
6:20 PM 75.2 °F 37.4 °F 25% 30.04 in - East 8.1 mph - N/A   Clear
6:50 PM 73.4 °F 42.8 °F 33% 30.04 in - East 8.1 mph - N/A   Clear
7:20 PM 73.4 °F 42.8 °F 33% 30.04 in - Variable 8.1 mph - N/A   Clear
7:50 PM 73.4 °F 42.8 °F 33% 30.01 in - East 10.4 mph - N/A   Clear
8:20 PM 73.4 °F 44.6 °F 36% 30.01 in - East 9.2 mph - N/A   Clear
8:50 PM 71.6 °F 46.4 °F 41% 30.04 in - East 8.1 mph - N/A   Clear
9:00 PM 71 °F 46 °F 29% 30.04 in 6 mi East 8.1 mph - -  
9:20 PM 71.6 °F 44.6 °F 38% 30.04 in - East 9.2 mph - N/A   Clear
9:50 PM 71.6 °F 44.6 °F 38% 30.04 in - East 10.4 mph - N/A   Clear
10:20 PM 69.8 °F 46.4 °F 43% 30.04 in - East 6.9 mph - N/A   Clear
10:50 PM 69.8 °F 46.4 °F 43% 30.04 in - East 5.8 mph - N/A   Clear
11:20 PM 69.8 °F 46.4 °F 43% 30.04 in - East 9.2 mph - N/A   Clear
11:50 PM 69.8 °F 48.2 °F 46% 30.04 in - East 10.4 mph - N/A   Clear